Location: Bothwell
(42.3833°S, 147.0000°E)
Time: 13:08:16
(UTC+11:00)

OBJECT D - Pass Details

Date: 16 November 2025
Orbit: 437 x 585 km, 63.5° (Epoch: 12 December)

Event Time Altitude Azimuth Distance (km) Brightness Sun altitude
Exits shadow 04:41:39 - 359° (N) 2,745 ? -10.0°
Reaches altitude 10° 04:44:10 10° 13° (NNE) 1,875 ? -9.6°
Maximum altitude 04:47:28 22° 65° (ENE) 1,241 ? -9.1°
Drops below altitude 10° 04:50:43 10° 116° (ESE) 1,838 ? -8.6°
Sets 04:53:15 0° 131° (SE) 2,711 ? -8.2°
